User: anonymous   Login
Location: Unspecified
(0.0000°N, 0.0000°E)
Time: 10:18:57
(UTC+01:00)
Language:

CZ-4 DEB - Orbit

View from above orbital plane
View from above orbital plane
View from above satellite
View from above satellite

Ground track
Ground track

The orbit data is extracted from the following two-line orbital elements,

1 29508U 06046D   14327.64503656  .00026808  00000-0  13532-2 0  7361
2 29508 097.7006 336.3921 0008159 102.2586 036.3975 15.17051883441448
Epoch (UTC): 23 November 2014 15:28:51
Eccentricity: 0.0008159
inclination: 97.7006°
perigee height: 509 km
apogee height: 520 km
right ascension of ascending node: 336.3921°
argument of perigee: 102.2586°
revolutions per day: 15.17051883
mean anomaly at epoch: 36.3975°
orbit number at epoch: 44144

The dashed part of the orbit path shows where the satellite is in the earth's shadow,  

DLR